Regional Weather Roundup
Issued by NWS Midland/Odessa, TX

Skip options and go directly to product.
Home | Oldest Version | Previous Version | Current Version | All | Graphics & Text | Save Text | Print | Product List | Glossary On

Skip product version selection by date and time.   
948
ASUS44 KMAF 281910
RWRMAF
MIDLAND AREA WEATHER ROUNDUP
NATIONAL WEATHER SERVICE MIDLAND TX
100 PM CST FRI NOV 28 2014

...IN SOUTHWEST TEXAS AND SOUTHEAST NEW MEXICO...

CITY           SKY/WX    TMP DP  RH WIND       PRES   REMARKS
ALPINE         SUNNY     68  18  14 SW23      30.25F
ANDREWS        FAIR      68  25  19 SW18      30.10F
ARTESIA        NOT AVBL
BIG SPRING     SUNNY     73  32  22 S15       30.12F
CARLSBAD       SUNNY     63  30  28 SE7       30.09F
DRYDEN           N/A     65  34  31 S9        30.16F
FORT STOCKTON  SUNNY     76  19  11 SW15      30.12F
GUAD PASS      NOT AVBL
HOBBS          SUNNY     68  27  21 S9        30.11F
MARFA          SUNNY     66  23  19 S12G18    30.25F
MIDLAND AIRPK  SUNNY     69  30  23 SW12      30.12F
MIDLAND INTL   SUNNY     68  30  24 SW14      30.11F
ODESSA         SUNNY     68  28  22 SW13      30.12F
PECOS          SUNNY     69  31  24 SE6       30.11F
PRESIDIO       FAIR      63  29  27 CALM      30.20F
SEMINOLE       SUNNY     69  28  21 SW12G17   30.10F
SNYDER         SUNNY     68  35  30 SW16G25   30.07F
WINK           SUNNY     71  22  15 SW15      30.10F
$$
...OTHER STATIONS IN TEXAS...

CITY           SKY/WX    TMP DP  RH WIND       PRES   REMARKS
ABILENE        SUNNY     67  45  45 S24G30    30.09F
AMARILLO       SUNNY     78  16   9 W17G28    29.95F
AUSTIN         MOSUNNY   70  51  51 SW18G26   30.19F
BROWNSVILLE    SUNNY     77  57  50 S18       30.23F
CORPUS CHRISTI MOSUNNY   73  55  53 S12       30.22F
DALLAS FTW     MOSUNNY   66  48  52 S21G26    30.10F
DEL RIO        SUNNY     63  49  60 E9        30.18F
EL PASO        MOSUNNY   60  21  22 CALM      30.20F
HOUSTON INT    PTSUNNY   70  54  56 S10       30.24F
LUBBOCK        PTSUNNY   70  30  22 SW16      30.04F
SAN ANGELO     SUNNY     71  39  31 S18G29    30.13F
SAN ANTONIO    MOSUNNY   69  49  48 SW17      30.21F
WACO           MOSUNNY   66  51  58 S18G29    30.17F
WICHITA FALLS  NOT AVBL
$$
...OTHER LOCATIONS IN NEW MEXICO...

CITY           SKY/WX    TMP DP  RH WIND       PRES   REMARKS
ALAMAGORDO     SUNNY     61  23  23 SE5       30.21F
ALBUQUERQUE    MOSUNNY   54  22  28 CALM      30.22F
CANNON AFB     MOSUNNY   71  23  16 W18       30.06F
CLOVIS         MOSUNNY   72  23  16 W18       30.05F
HOLLOMAN AFB   MOSUNNY   60  23  23 SE3       30.19F
ROSWELL        SUNNY     61  29  29 VRB3      30.09F
RUIDOSO        SUNNY     63  21  20 N8        30.25F
SANTA FE       SUNNY     54  18  24 SW8       30.21F
TRUTH OR CONSE SUNNY     59  22  24 S7        30.20F
TUCUMCARI      SUNNY     78  15   9 W22G29    29.98F
$$

USA.gov is the U.S. government's official web portal to all federal, state and local government web resources and services.